Overview Statistics Trail Chart Weather Telemetry Raw packets
 

This is the latest recevied weather packets stored in our database for station/object W6MAF. If no packets are shown the sender has not sent any weather packets the latest 10 day(s).

<< 16 17 18 19 20 21 22 >>
Time Temp. Humidity Pressure Rain* Wind** Luminosity Snow
1788558147 25° C 6% - 0 mm 8.05 m/s, 186° - -
1788557849 25.56° C 6% - 0 mm 9.39 m/s, 200° - -
1788557551 25.56° C 6% - 0 mm 6.71 m/s, 188° - -
1788557253 25.56° C 6% - 0 mm 6.71 m/s, 193° - -
1788556953 25.56° C 5% - 0 mm 7.6 m/s, 198° - -
1788556655 25.56° C 6% - 0 mm 5.36 m/s, 210° - -
1788556357 25.56° C 6% - 0 mm 8.49 m/s, 191° - -
1788556059 25.56° C 5% - 0 mm 6.26 m/s, 207° - -
1788555762 25.56° C 6% - 0 mm 6.71 m/s, 214° - -
1788555464 25.56° C 5% - 0 mm 4.02 m/s, 184° - -
1788555163 25.56° C 6% - 0 mm 8.49 m/s, 203° - -
1788554865 25° C 6% - 0 mm 5.36 m/s, 205° - -
1788554568 25.56° C 6% - 0 mm 8.05 m/s, 191° - -
1788554270 25.56° C 6% - 0 mm 8.49 m/s, 181° - -
1788553972 26.11° C 6% - 0 mm 5.81 m/s, 195° - -
1788553674 26.11° C 5% - 0 mm 6.26 m/s, 212° - -
1788553374 26.11° C 5% - 0 mm 5.81 m/s, 205° - -
1788553076 26.67° C 5% - 0 mm 5.36 m/s, 195° - -
1788552778 26.67° C 5% - 0 mm 7.6 m/s, 226° - -
1788552480 26.11° C 5% - 0 mm 0 m/s - -
1788552183 26.11° C 5% - 0 mm 6.71 m/s, 229° - -
1788551885 26.11° C 5% - 0 mm 2.24 m/s, 225° - -
1788551584 26.11° C 5% - 0 mm 4.92 m/s, 211° - -
1788551286 25.56° C 6% - 0 mm 0.45 m/s, 248° - -
1788550691 25° C 6% - 0 mm 0 m/s - -

* Rain latest hour (hover to see other rain measurements)
** Current wind speed in m/s (hover to see current wind gust speed)